VK3GQ-3 Weather Reports


time (UTC)temp
F
wind
direction
speed
knots
gust
knots
rain 1hr
in
rain 24hr
in
rain mn
in
humidity
%
barometer
mb
20260505121825 54 0 0.0 0.0 0.00 0.00 0.00 83 1022.8
20260505120904 54 0 0.0 0.0 0.00 0.00 0.00 82 1022.7
20260505120005 54 0 0.0 0.0 0.00 0.00 0.00 82 1023.0
20260505115404 54 0 0.0 0.0 0.00 0.00 0.00 81 1022.8
20260505114525 54 0 0.0 0.0 0.00 0.00 0.00 81 1023.0
20260505113604 54 0 0.0 0.0 0.00 0.00 0.00 82 1023.2
20260505112704 54 0 0.0 0.0 0.00 0.00 0.00 82 1023.0
20260505111825 54 18 0.0 0.9 0.00 0.00 0.00 81 1023.0
20260505110925 54 18 0.0 0.9 0.00 0.00 0.00 81 1023.0
20260505101804 54 23 0.0 0.9 0.00 0.00 0.00 80 1023.0
20260505100904 54 0 0.0 0.0 0.00 0.00 0.00 80 1023.0
20260505100004 54 24 0.0 1.7 0.00 0.00 0.00 80 1023.0
20260505095404 54 24 0.0 1.7 0.00 0.00 0.00 80 1022.9
20260505094504 54 2 0.0 0.9 0.00 0.00 0.00 80 1023.1
20260505093604 55 26 0.0 0.9 0.00 0.00 0.00 79 1022.9
20260505092704 54 36 0.0 1.7 0.00 0.00 0.00 79 1023.1
20260505091825 54 35 0.0 0.9 0.00 0.00 0.00 80 1022.9
20260505090904 54 0 0.0 0.0 0.00 0.00 0.00 82 1022.9
20260505090004 54 34 0.0 1.7 0.00 0.00 0.00 81 1022.6
20260505085404 54 35 0.0 1.7 0.00 0.00 0.00 82 1022.6
20260505084504 54 0 0.0 0.0 0.00 0.00 0.00 83 1022.6
20260505083604 54 0 0.0 0.0 0.00 0.00 0.00 84 1022.7
20260505082704 54 0 0.0 0.0 0.00 0.00 0.00 84 1022.3
20260505081804 54 0 0.0 0.0 0.00 0.00 0.00 84 1022.3
20260505080904 54 0 0.0 0.0 0.00 0.00 0.00 84 1022.5
20260505080004 54 0 0.0 0.0 0.00 0.01 0.00 84 1022.2
20260505075425 54 0 0.0 0.0 0.00 0.03 0.00 84 1022.2
20260505074504 55 224 0.0 0.9 0.00 0.04 0.00 83 1022.3
20260505073604 55 224 0.0 0.9 0.00 0.04 0.00 82 1022.2
20260505072704 55 0 0.0 0.0 0.00 0.04 0.00 82 1022.0
20260505071804 55 0 0.0 0.0 0.00 0.04 0.00 82 1022.0
20260505070904 56 0 0.0 0.0 0.00 0.04 0.00 81 1021.8
20260505070004 56 0 0.0 0.0 0.00 0.04 0.00 79 1021.8
20260505065404 56 0 0.0 0.0 0.00 0.04 0.00 78 1021.7
20260505064504 56 0 0.0 0.0 0.00 0.04 0.00 78 1021.5
20260505063604 56 0 0.0 0.0 0.00 0.04 0.00 78 1021.5
20260505062704 56 0 0.0 0.0 0.00 0.04 0.00 78 1021.4
20260505061804 56 206 0.0 2.6 0.00 0.04 0.00 77 1021.3
20260505060925 56 211 0.0 2.6 0.00 0.04 0.00 78 1021.4
20260505060004 56 211 0.0 2.6 0.00 0.04 0.00 77 1021.4
20260505055425 56 204 0.0 2.6 0.00 0.04 0.00 76 1021.4
20260505054504 57 0 0.0 0.0 0.00 0.04 0.00 76 1021.2
20260505053604 57 321 0.0 0.9 0.00 0.04 0.00 75 1021.1
20260505052704 57 203 0.0 1.7 0.00 0.04 0.00 74 1021.1
20260505051803 57 222 0.0 0.9 0.00 0.04 0.00 75 1021.0
20260505050903 57 248 0.0 0.9 0.00 0.04 0.00 75 1020.9
20260505040924 57 220 0.0 2.6 0.00 0.04 0.00 75 1020.7
20260505040005 57 196 0.9 3.5 0.00 0.04 0.00 74 1020.5
20260505035403 56 240 0.0 2.6 0.00 0.04 0.00 73 1020.4
20260505034504 57 262 0.9 3.5 0.00 0.04 0.00 72 1020.5
20260505033603 57 239 0.0 2.6 0.00 0.04 0.00 71 1020.5
20260505032703 58 218 0.0 2.6 0.00 0.04 0.00 72 1020.4
20260505031825 58 235 0.9 2.6 0.00 0.04 0.00 71 1020.5
20260505030924 58 292 0.9 3.5 0.00 0.04 0.00 70 1020.2
20260505030004 58 249 0.9 5.2 0.00 0.04 0.00 71 1020.4
20260505025403 58 214 0.9 5.2 0.00 0.04 0.00 72 1020.5
20260505024504 57 220 0.9 5.2 0.00 0.04 0.00 73 1020.5
20260505023604 58 242 0.9 3.5 0.00 0.04 0.00 74 1020.1
20260505022703 58 241 0.9 3.5 0.00 0.04 0.00 74 1020.4
20260505021803 57 313 0.9 3.5 0.00 0.04 0.00 76 1020.6
20260505020903 57 291 0.0 2.6 0.00 0.04 0.00 77 1020.5
20260505020004 57 223 0.9 6.1 0.00 0.04 0.00 78 1020.5
20260505015424 56 211 0.9 6.1 0.00 0.04 0.00 77 1020.8
20260505014503 56 198 0.9 5.2 0.00 0.04 0.00 79 1020.9
20260505013603 56 246 0.9 2.6 0.00 0.04 0.00 79 1020.7
20260505012703 56 245 0.9 2.6 0.00 0.04 0.00 79 1020.7
20260505011803 58 233 0.9 5.2 0.00 0.04 0.00 77 1020.8
20260505010903 57 255 0.9 6.1 0.00 0.04 0.00 77 1020.9
20260505010004 56 248 0.9 5.2 0.00 0.04 0.00 79 1020.8
20260505005403 57 221 0.9 3.5 0.00 0.04 0.00 78 1020.7
20260505004503 56 213 0.9 3.5 0.00 0.04 0.00 80 1020.7
20260505003604 56 262 0.9 5.2 0.00 0.04 0.00 79 1020.6
20260505002704 57 278 0.9 5.2 0.00 0.04 0.00 80 1020.6
20260505001804 56 235 0.9 6.1 0.00 0.04 0.00 80 1020.1
20260505000925 56 243 0.9 5.2 0.00 0.04 0.00 80 1020.2
20260505000004 56 244 0.9 5.2 0.00 0.04 0.00 80 1020.1
20260504235425 56 258 0.9 2.6 0.00 0.04 0.00 79 1020.1
20260504234504 56 227 0.9 6.1 0.00 0.04 0.00 80 1020.2
20260504233625 56 241 0.9 7.8 0.00 0.04 0.00 83 1020.2
20260504232704 55 214 1.7 6.1 0.00 0.04 0.00 82 1020.0
20260504231804 55 265 0.9 6.1 0.00 0.04 0.00 84 1020.2
20260504230904 55 224 0.9 3.5 0.00 0.04 0.00 87 1019.9
20260504230005 55 253 0.0 1.7 0.00 0.04 0.00 90 1019.8
20260504225425 55 290 0.0 1.7 0.00 0.04 0.00 91 1019.6
20260504224525 54 339 0.0 1.7 0.00 0.04 0.00 93 1019.7
20260504223604 53 270 0.0 2.6 0.00 0.04 0.00 95 1019.4
20260504222704 53 278 0.0 2.6 0.00 0.04 0.00 95 1019.4
20260504221804 53 253 0.0 3.5 0.00 0.04 0.00 96 1019.3
20260504220904 53 237 0.0 3.5 0.00 0.04 0.00 96 1019.3
20260504220004 53 236 0.0 2.6 0.00 0.04 0.00 97 1019.0
20260504215404 53 227 0.0 2.6 0.00 0.04 0.00 97 1018.9
20260504214504 53 257 0.0 0.9 0.00 0.04 0.00 97 1018.6
20260504213604 52 0 0.0 0.0 0.00 0.04 0.00 97 1018.4
20260504212704 52 232 0.0 0.9 0.00 0.04 0.00 97 1018.3
20260504211825 52 231 0.0 1.7 0.00 0.04 0.00 97 1018.1
20260504210925 52 244 0.0 3.5 0.00 0.04 0.00 97 1018.0
20260504210004 52 251 0.0 1.7 0.00 0.04 0.00 97 1018.1
20260504205404 52 212 0.9 2.6 0.00 0.04 0.00 97 1017.8
20260504204504 52 188 0.9 3.5 0.00 0.04 0.00 96 1017.9
20260504203604 53 191 0.9 6.1 0.00 0.04 0.00 96 1017.5
20260504202704 53 205 0.9 6.1 0.00 0.04 0.00 95 1017.5
20260504201804 53 236 0.9 3.5 0.00 0.04 0.00 93 1017.2
20260504200925 53 284 0.9 5.2 0.00 0.04 0.00 92 1017.1
20260504200004 53 236 0.9 5.2 0.00 0.04 0.00 91 1017.1
20260504195404 53 191 0.9 3.5 0.00 0.04 0.00 91 1017.0
20260504194504 53 199 0.9 2.6 0.00 0.04 0.00 91 1016.7
20260504193604 53 187 0.9 7.8 0.00 0.04 0.00 90 1016.7
20260504192725 53 210 0.9 7.8 0.00 0.04 0.00 90 1016.8
20260504191804 53 211 0.9 6.1 0.00 0.04 0.00 90 1016.9
20260504190904 53 204 0.9 6.1 0.00 0.04 0.00 89 1016.5
20260504190004 53 220 0.9 6.1 0.00 0.04 0.00 89 1016.6
20260504185404 53 213 0.9 3.5 0.00 0.04 0.00 89 1016.6
20260504184504 53 224 0.9 6.1 0.00 0.04 0.00 89 1016.3
20260504183603 53 245 0.0 3.5 0.00 0.04 0.00 89 1016.2
20260504182704 54 232 0.0 2.6 0.00 0.04 0.00 89 1016.1
20260504181804 54 198 0.9 3.5 0.00 0.04 0.00 88 1016.1
20260504180904 54 206 0.9 3.5 0.00 0.04 0.00 88 1015.8
20260504180004 54 247 0.9 2.6 0.00 0.04 0.00 88 1015.8
20260504175404 54 232 0.9 6.1 0.00 0.04 0.00 88 1015.8
20260504174504 54 229 0.9 6.1 0.00 0.04 0.00 87 1015.6
20260504173604 54 232 0.9 5.2 0.00 0.04 0.00 88 1015.6
20260504172704 54 207 0.9 6.1 0.00 0.04 0.00 88 1015.5
20260504171803 54 201 0.9 5.2 0.00 0.04 0.00 88 1015.6
20260504170904 54 201 0.9 5.2 0.00 0.04 0.00 88 1015.5
20260504150903 55 210 0.9 2.6 0.00 0.04 0.00 87 1015.0
20260504140903 55 242 0.9 3.5 0.00 0.04 0.00 88 1014.6